Year,Month,Day,Hour,Minute,Value (Times are PST for temperature in C)
2017,07,18,00,00,11.60
2017,07,18,00,01,11.60
2017,07,18,00,02,11.60
2017,07,18,00,03,11.60
2017,07,18,00,04,11.60
2017,07,18,00,05,11.70
2017,07,18,00,06,11.70
2017,07,18,00,07,11.70
2017,07,18,00,08,11.70
2017,07,18,00,09,11.70
2017,07,18,00,10,11.70
2017,07,18,00,11,11.70
2017,07,18,00,12,11.70
2017,07,18,00,13,11.60
2017,07,18,00,14,11.60
2017,07,18,00,15,11.60
2017,07,18,00,16,11.50
2017,07,18,00,17,11.50
2017,07,18,00,18,11.50
2017,07,18,00,19,11.40
2017,07,18,00,20,11.40
2017,07,18,00,21,11.40
2017,07,18,00,22,11.40
2017,07,18,00,23,11.30
2017,07,18,00,24,11.30
2017,07,18,00,25,11.30
2017,07,18,00,26,11.30
2017,07,18,00,27,11.30
2017,07,18,00,28,11.30
2017,07,18,00,29,11.30
2017,07,18,00,30,11.30
2017,07,18,00,31,11.30
2017,07,18,00,32,11.20
2017,07,18,00,33,11.20
2017,07,18,00,34,11.20
2017,07,18,00,35,11.20
2017,07,18,00,36,11.20
2017,07,18,00,37,11.20
2017,07,18,00,38,11.20
2017,07,18,00,39,11.10
2017,07,18,00,40,11.10
2017,07,18,00,41,11.10
2017,07,18,00,42,11.10
2017,07,18,00,43,11.10
2017,07,18,00,44,11.00
2017,07,18,00,45,11.00
2017,07,18,00,46,11.00
2017,07,18,00,47,10.90
2017,07,18,00,48,10.90
2017,07,18,00,49,10.90
2017,07,18,00,50,10.90
2017,07,18,00,51,10.90
2017,07,18,00,52,10.90
2017,07,18,00,53,10.90
2017,07,18,00,54,11.00
2017,07,18,00,55,11.00
2017,07,18,00,56,11.00
2017,07,18,00,57,11.00
2017,07,18,00,58,11.00
2017,07,18,00,59,11.00
2017,07,18,01,00,11.10
2017,07,18,01,01,11.10
2017,07,18,01,02,11.10
2017,07,18,01,03,11.10
2017,07,18,01,04,11.00
2017,07,18,01,05,11.00
2017,07,18,01,06,11.00
2017,07,18,01,07,11.00
2017,07,18,01,08,11.00
2017,07,18,01,09,11.00
2017,07,18,01,10,10.90
2017,07,18,01,11,10.90
2017,07,18,01,12,10.90
2017,07,18,01,13,10.90
2017,07,18,01,14,10.80
2017,07,18,01,15,10.80
2017,07,18,01,16,10.80
2017,07,18,01,17,10.80
2017,07,18,01,18,10.80
2017,07,18,01,19,10.70
2017,07,18,01,20,10.70
2017,07,18,01,21,10.70
2017,07,18,01,22,10.70
2017,07,18,01,23,10.60
2017,07,18,01,24,10.60
2017,07,18,01,25,10.60
2017,07,18,01,26,10.60
2017,07,18,01,27,10.60
2017,07,18,01,28,10.60
2017,07,18,01,29,10.60
2017,07,18,01,30,10.60
2017,07,18,01,31,10.60
2017,07,18,01,32,10.60
2017,07,18,01,33,10.50
2017,07,18,01,34,10.50
2017,07,18,01,35,10.50
2017,07,18,01,36,10.50
2017,07,18,01,37,10.50
2017,07,18,01,38,10.40
2017,07,18,01,39,10.40
2017,07,18,01,40,10.40
2017,07,18,01,41,10.40
2017,07,18,01,42,10.40
2017,07,18,01,43,10.40
2017,07,18,01,44,10.40
2017,07,18,01,45,10.40
2017,07,18,01,46,10.40
2017,07,18,01,47,10.40
2017,07,18,01,48,10.40
2017,07,18,01,49,10.30
2017,07,18,01,50,10.30
2017,07,18,01,51,10.30
2017,07,18,01,52,10.30
2017,07,18,01,53,10.30
2017,07,18,01,54,10.30
2017,07,18,01,55,10.30
2017,07,18,01,56,10.30
2017,07,18,01,57,10.30
2017,07,18,01,58,10.30
2017,07,18,01,59,10.30
2017,07,18,02,00,10.30
2017,07,18,02,01,10.30
2017,07,18,02,02,10.30
2017,07,18,02,03,10.30
2017,07,18,02,04,10.30
2017,07,18,02,05,10.30
2017,07,18,02,06,10.30
2017,07,18,02,07,10.30
2017,07,18,02,08,10.30
2017,07,18,02,09,10.30
2017,07,18,02,10,10.30
2017,07,18,02,11,10.30
2017,07,18,02,12,10.30
2017,07,18,02,13,10.30
2017,07,18,02,14,10.30
2017,07,18,02,15,10.30
2017,07,18,02,16,10.30
2017,07,18,02,17,10.30
2017,07,18,02,18,10.30
2017,07,18,02,19,10.30
2017,07,18,02,20,10.30
2017,07,18,02,21,10.30
2017,07,18,02,22,10.30
2017,07,18,02,23,10.20
2017,07,18,02,24,10.20
2017,07,18,02,25,10.20
2017,07,18,02,26,10.20
2017,07,18,02,27,10.20
2017,07,18,02,28,10.20
2017,07,18,02,29,10.20
2017,07,18,02,30,10.20
2017,07,18,02,31,10.20
2017,07,18,02,32,10.10
2017,07,18,02,33,10.10
2017,07,18,02,34,10.10
2017,07,18,02,35,10.10
2017,07,18,02,36,10.10
2017,07,18,02,37,10.10
2017,07,18,02,38,10.10
2017,07,18,02,39,10.10
2017,07,18,02,40,10.00
2017,07,18,02,41,10.00
2017,07,18,02,42,10.10
2017,07,18,02,43,10.10
2017,07,18,02,44,10.10
2017,07,18,02,45,10.10
2017,07,18,02,46,10.10
2017,07,18,02,47,10.10
2017,07,18,02,48,10.10
2017,07,18,02,49,10.10
2017,07,18,02,50,10.10
2017,07,18,02,51,10.10
2017,07,18,02,52,10.10
2017,07,18,02,53,10.10
2017,07,18,02,54,10.10
2017,07,18,02,55,10.10
2017,07,18,02,56,10.10
2017,07,18,02,57,10.10
2017,07,18,02,58,10.00
2017,07,18,02,59,10.00
2017,07,18,03,00,10.00
2017,07,18,03,01,10.00
2017,07,18,03,02,10.00
2017,07,18,03,03,10.00
2017,07,18,03,04,10.00
2017,07,18,03,05,10.00
2017,07,18,03,06,9.90
2017,07,18,03,07,9.90
2017,07,18,03,08,9.90
2017,07,18,03,09,9.90
2017,07,18,03,10,9.90
2017,07,18,03,11,9.80
2017,07,18,03,12,9.80
2017,07,18,03,13,9.80
2017,07,18,03,14,9.80
2017,07,18,03,15,9.80
2017,07,18,03,16,9.80
2017,07,18,03,17,9.80
2017,07,18,03,18,9.80
2017,07,18,03,19,9.80
2017,07,18,03,20,9.80
2017,07,18,03,21,9.80
2017,07,18,03,22,9.80
2017,07,18,03,23,9.80
2017,07,18,03,24,9.80
2017,07,18,03,25,9.80
2017,07,18,03,26,9.80
2017,07,18,03,27,9.80
2017,07,18,03,28,9.80
2017,07,18,03,29,9.80
2017,07,18,03,30,9.80
2017,07,18,03,31,9.80
2017,07,18,03,32,9.80
2017,07,18,03,33,9.80
2017,07,18,03,34,9.80
2017,07,18,03,35,9.80
2017,07,18,03,36,9.80
2017,07,18,03,37,9.80
2017,07,18,03,38,9.80
2017,07,18,03,39,9.80
2017,07,18,03,40,9.80
2017,07,18,03,41,9.80
2017,07,18,03,42,9.70
2017,07,18,03,43,9.70
2017,07,18,03,44,9.70
2017,07,18,03,45,9.70
2017,07,18,03,46,9.70
2017,07,18,03,47,9.70
2017,07,18,03,48,9.70
2017,07,18,03,49,9.60
2017,07,18,03,50,9.60
2017,07,18,03,51,9.60
2017,07,18,03,52,9.60
2017,07,18,03,53,9.60
2017,07,18,03,54,9.60
2017,07,18,03,55,9.60
2017,07,18,03,56,9.60
2017,07,18,03,57,9.60
2017,07,18,03,58,9.60
2017,07,18,03,59,9.60
2017,07,18,04,00,9.50
2017,07,18,04,01,9.50
2017,07,18,04,02,9.50
2017,07,18,04,03,9.50
2017,07,18,04,04,9.50
2017,07,18,04,05,9.50
2017,07,18,04,06,9.50
2017,07,18,04,07,9.40
2017,07,18,04,08,9.40
2017,07,18,04,09,9.40
2017,07,18,04,10,9.40
2017,07,18,04,11,9.40
2017,07,18,04,12,9.30
2017,07,18,04,13,9.30
2017,07,18,04,14,9.30
2017,07,18,04,15,9.30
2017,07,18,04,16,9.20
2017,07,18,04,17,9.20
2017,07,18,04,18,9.20
2017,07,18,04,19,9.20
2017,07,18,04,20,9.20
2017,07,18,04,21,9.20
2017,07,18,04,22,9.20
2017,07,18,04,23,9.10
2017,07,18,04,24,9.10
2017,07,18,04,25,9.10
2017,07,18,04,26,9.10
2017,07,18,04,27,9.10
2017,07,18,04,28,9.10
2017,07,18,04,29,9.00
2017,07,18,04,30,9.00
2017,07,18,04,31,9.00
2017,07,18,04,32,9.00
2017,07,18,04,33,9.00
2017,07,18,04,34,9.00
2017,07,18,04,35,9.10
2017,07,18,04,36,9.10
2017,07,18,04,37,9.10
2017,07,18,04,38,9.10
2017,07,18,04,39,9.10
2017,07,18,04,40,9.10
2017,07,18,04,41,9.00
2017,07,18,04,42,9.00
2017,07,18,04,43,9.00
2017,07,18,04,44,8.90
2017,07,18,04,45,8.90
2017,07,18,04,46,8.90
2017,07,18,04,47,8.90
2017,07,18,04,48,8.90
2017,07,18,04,49,8.90
2017,07,18,04,50,8.90
2017,07,18,04,51,8.90
2017,07,18,04,52,8.90
2017,07,18,04,53,8.90
2017,07,18,04,54,8.90
2017,07,18,04,55,8.90
2017,07,18,04,56,8.90
2017,07,18,04,57,8.90
2017,07,18,04,58,8.90
2017,07,18,04,59,8.80
2017,07,18,05,00,8.80
2017,07,18,05,01,8.80
2017,07,18,05,02,8.80
2017,07,18,05,03,8.80
2017,07,18,05,04,8.80
2017,07,18,05,05,8.80
2017,07,18,05,06,8.80
2017,07,18,05,07,8.80
2017,07,18,05,08,8.80
2017,07,18,05,09,8.80
2017,07,18,05,10,8.80
2017,07,18,05,11,8.80
2017,07,18,05,12,8.80
2017,07,18,05,13,8.80
2017,07,18,05,14,8.80
2017,07,18,05,15,8.80
2017,07,18,05,16,8.80
2017,07,18,05,17,8.70
2017,07,18,05,18,8.70
2017,07,18,05,19,8.70
2017,07,18,05,20,8.70
2017,07,18,05,21,8.70
2017,07,18,05,22,8.70
2017,07,18,05,23,8.70
2017,07,18,05,24,8.70
2017,07,18,05,25,8.70
2017,07,18,05,26,8.70
2017,07,18,05,27,8.70
2017,07,18,05,28,8.60
2017,07,18,05,29,8.60
2017,07,18,05,30,8.60
2017,07,18,05,31,8.60
2017,07,18,05,32,8.60
2017,07,18,05,33,8.50
2017,07,18,05,34,8.50
2017,07,18,05,35,8.50
2017,07,18,05,36,8.40
2017,07,18,05,37,8.40
2017,07,18,05,38,8.40
2017,07,18,05,39,8.40
2017,07,18,05,40,8.40
2017,07,18,05,41,8.40
2017,07,18,05,42,8.40
2017,07,18,05,43,8.40
2017,07,18,05,44,8.40
2017,07,18,05,45,8.40
2017,07,18,05,46,8.40
2017,07,18,05,47,8.40
2017,07,18,05,48,8.40
2017,07,18,05,49,8.40
2017,07,18,05,50,8.40
2017,07,18,05,51,8.30
2017,07,18,05,52,8.30
2017,07,18,05,53,8.30
2017,07,18,05,54,8.30
2017,07,18,05,55,8.30
2017,07,18,05,56,8.30
2017,07,18,05,57,8.30
2017,07,18,05,58,8.30
2017,07,18,05,59,8.30
2017,07,18,06,00,8.30
2017,07,18,06,01,8.30
2017,07,18,06,02,8.30
2017,07,18,06,03,8.30
2017,07,18,06,04,8.30
2017,07,18,06,05,8.30
2017,07,18,06,06,8.30
2017,07,18,06,07,8.30
2017,07,18,06,08,8.30
2017,07,18,06,09,8.30
2017,07,18,06,10,8.30
2017,07,18,06,11,8.30
2017,07,18,06,12,8.30
2017,07,18,06,13,8.30
2017,07,18,06,14,8.30
2017,07,18,06,15,8.30
2017,07,18,06,16,8.30
2017,07,18,06,17,8.30
2017,07,18,06,18,8.30
2017,07,18,06,19,8.30
2017,07,18,06,20,8.30
2017,07,18,06,21,8.30
2017,07,18,06,22,8.30
2017,07,18,06,23,8.30
2017,07,18,06,24,8.30
2017,07,18,06,25,8.30
2017,07,18,06,26,8.30
2017,07,18,06,27,8.30
2017,07,18,06,28,8.30
2017,07,18,06,29,8.40
2017,07,18,06,30,8.40
2017,07,18,06,31,8.40
2017,07,18,06,32,8.50
2017,07,18,06,33,8.50
2017,07,18,06,34,8.50
2017,07,18,06,35,8.60
2017,07,18,06,36,8.60
2017,07,18,06,37,8.60
2017,07,18,06,38,8.70
2017,07,18,06,39,8.70
2017,07,18,06,40,8.70
2017,07,18,06,41,8.70
2017,07,18,06,42,8.80
2017,07,18,06,43,8.80
2017,07,18,06,44,8.80
2017,07,18,06,45,8.80
2017,07,18,06,46,8.90
2017,07,18,06,47,8.90
2017,07,18,06,48,8.90
2017,07,18,06,49,9.00
2017,07,18,06,50,9.00
2017,07,18,06,51,9.10
2017,07,18,06,52,9.10
2017,07,18,06,53,9.20
2017,07,18,06,54,9.20
2017,07,18,06,55,9.20
2017,07,18,06,56,9.30
2017,07,18,06,57,9.30
2017,07,18,06,58,9.40
2017,07,18,06,59,9.50
2017,07,18,07,00,9.50
2017,07,18,07,01,9.60
2017,07,18,07,02,9.70
2017,07,18,07,03,9.70
2017,07,18,07,04,9.80
2017,07,18,07,05,9.80
2017,07,18,07,06,9.90
2017,07,18,07,07,9.90
2017,07,18,07,08,10.00
2017,07,18,07,09,10.00
2017,07,18,07,10,10.10
2017,07,18,07,11,10.10
2017,07,18,07,12,10.20
2017,07,18,07,13,10.20
2017,07,18,07,14,10.30
2017,07,18,07,15,10.30
2017,07,18,07,16,10.40
2017,07,18,07,17,10.40
2017,07,18,07,18,10.50
2017,07,18,07,19,10.60
2017,07,18,07,20,10.60
2017,07,18,07,21,10.70
2017,07,18,07,22,10.70
2017,07,18,07,23,10.80
2017,07,18,07,24,10.80
2017,07,18,07,25,10.80
2017,07,18,07,26,10.90
2017,07,18,07,27,10.90
2017,07,18,07,28,10.90
2017,07,18,07,29,11.00
2017,07,18,07,30,11.10
2017,07,18,07,31,11.10
2017,07,18,07,32,11.10
2017,07,18,07,33,11.10
2017,07,18,07,34,11.10
2017,07,18,07,35,11.20
2017,07,18,07,36,11.20
2017,07,18,07,37,11.20
2017,07,18,07,38,11.30
2017,07,18,07,39,11.30
2017,07,18,07,40,11.30
2017,07,18,07,41,11.40
2017,07,18,07,42,11.40
2017,07,18,07,43,11.40
2017,07,18,07,44,11.50
2017,07,18,07,45,11.50
2017,07,18,07,46,11.60
2017,07,18,07,47,11.60
2017,07,18,07,48,11.60
2017,07,18,07,49,11.70
2017,07,18,07,50,11.70
2017,07,18,07,51,11.70
2017,07,18,07,52,11.70
2017,07,18,07,53,11.80
2017,07,18,07,54,11.80
2017,07,18,07,55,11.80
2017,07,18,07,56,11.90
2017,07,18,07,57,11.90
2017,07,18,07,58,11.90
2017,07,18,07,59,12.00
2017,07,18,08,00,12.00
2017,07,18,08,01,12.00
2017,07,18,08,02,12.10
2017,07,18,08,03,12.10
2017,07,18,08,04,12.20
2017,07,18,08,05,12.20
2017,07,18,08,06,12.30
2017,07,18,08,07,12.30
2017,07,18,08,08,12.40
2017,07,18,08,09,12.40
2017,07,18,08,10,12.50
2017,07,18,08,11,12.60
2017,07,18,08,12,12.70
2017,07,18,08,13,12.80
2017,07,18,08,14,12.90
2017,07,18,08,15,12.90
2017,07,18,08,16,13.00
2017,07,18,08,17,13.10
2017,07,18,08,18,13.20
2017,07,18,08,19,13.30
2017,07,18,08,20,13.40
2017,07,18,08,21,13.40
2017,07,18,08,22,13.50
2017,07,18,08,23,13.60
2017,07,18,08,24,13.60
2017,07,18,08,25,13.70
2017,07,18,08,26,13.80
2017,07,18,08,27,13.90
2017,07,18,08,28,13.90
2017,07,18,08,29,14.00
2017,07,18,08,30,14.10
2017,07,18,08,31,14.20
2017,07,18,08,32,14.20
2017,07,18,08,33,14.30
2017,07,18,08,34,14.40
2017,07,18,08,35,14.50
2017,07,18,08,36,14.50
2017,07,18,08,37,14.60
2017,07,18,08,38,14.60
2017,07,18,08,39,14.70
2017,07,18,08,40,14.70
2017,07,18,08,41,14.70
2017,07,18,08,42,14.80
2017,07,18,08,43,14.80
2017,07,18,08,44,14.80
2017,07,18,08,45,14.80
2017,07,18,08,46,14.90
2017,07,18,08,47,14.90
2017,07,18,08,48,14.90
2017,07,18,08,49,15.00
2017,07,18,08,50,15.00
2017,07,18,08,51,15.10
2017,07,18,08,52,15.20
2017,07,18,08,53,15.30
2017,07,18,08,54,15.30
2017,07,18,08,55,15.30
2017,07,18,08,56,15.40
2017,07,18,08,57,15.40
2017,07,18,08,58,15.40
2017,07,18,08,59,15.40
2017,07,18,09,00,15.40
2017,07,18,09,01,15.40
2017,07,18,09,02,15.40
2017,07,18,09,03,15.50
2017,07,18,09,04,15.50
2017,07,18,09,05,15.50
2017,07,18,09,06,15.50
2017,07,18,09,07,15.50
2017,07,18,09,08,15.50
2017,07,18,09,09,15.50
2017,07,18,09,10,15.50
2017,07,18,09,11,15.50
2017,07,18,09,12,15.50
2017,07,18,09,13,15.50
2017,07,18,09,14,15.40
2017,07,18,09,15,15.30
2017,07,18,09,16,15.30
2017,07,18,09,17,15.20
2017,07,18,09,18,15.20
2017,07,18,09,19,15.10
2017,07,18,09,20,15.00
2017,07,18,09,21,15.00
2017,07,18,09,22,14.90
2017,07,18,09,23,14.90
2017,07,18,09,24,14.80
2017,07,18,09,25,14.80
2017,07,18,09,26,14.70
2017,07,18,09,27,14.70
2017,07,18,09,28,14.70
2017,07,18,09,29,14.80
2017,07,18,09,30,14.80
2017,07,18,09,31,14.90
2017,07,18,09,32,15.00
2017,07,18,09,33,15.10
2017,07,18,09,34,15.10
2017,07,18,09,35,15.20
2017,07,18,09,36,15.20
2017,07,18,09,37,15.10
2017,07,18,09,38,15.10
2017,07,18,09,39,15.10
2017,07,18,09,40,15.10
2017,07,18,09,41,15.10
2017,07,18,09,42,15.10
2017,07,18,09,43,15.20
2017,07,18,09,44,15.20
2017,07,18,09,45,15.30
2017,07,18,09,46,15.30
2017,07,18,09,47,15.30
2017,07,18,09,48,15.30
2017,07,18,09,49,15.40
2017,07,18,09,50,15.40
2017,07,18,09,51,15.50
2017,07,18,09,52,15.50
2017,07,18,09,53,15.60
2017,07,18,09,54,15.70
2017,07,18,09,55,15.70
2017,07,18,09,56,15.70
2017,07,18,09,57,15.70
2017,07,18,09,58,15.70
2017,07,18,09,59,15.70
2017,07,18,10,00,15.70
2017,07,18,10,01,15.60
2017,07,18,10,02,15.50
2017,07,18,10,03,15.50
2017,07,18,10,04,15.50
2017,07,18,10,05,15.50
2017,07,18,10,06,15.50
2017,07,18,10,07,15.60
2017,07,18,10,08,15.60
2017,07,18,10,09,15.60
2017,07,18,10,10,15.70
2017,07,18,10,11,15.70
2017,07,18,10,12,15.70
2017,07,18,10,13,15.80
2017,07,18,10,14,15.80
2017,07,18,10,15,15.80
2017,07,18,10,16,15.80
2017,07,18,10,17,15.90
2017,07,18,10,18,16.00
2017,07,18,10,19,16.00
2017,07,18,10,20,16.10
2017,07,18,10,21,16.10
2017,07,18,10,22,16.20
2017,07,18,10,23,16.20
2017,07,18,10,24,16.20
2017,07,18,10,25,16.20
2017,07,18,10,26,16.20
2017,07,18,10,27,16.20
2017,07,18,10,28,16.30
2017,07,18,10,29,16.30
2017,07,18,10,30,16.40
2017,07,18,10,31,16.40
2017,07,18,10,32,16.50
2017,07,18,10,33,16.50
2017,07,18,10,34,16.50
2017,07,18,10,35,16.60
2017,07,18,10,36,16.60
2017,07,18,10,37,16.60
2017,07,18,10,38,16.60
2017,07,18,10,39,16.50
2017,07,18,10,40,16.50
2017,07,18,10,41,16.50
2017,07,18,10,42,16.50
2017,07,18,10,43,16.60
2017,07,18,10,44,16.60
2017,07,18,10,45,16.60
2017,07,18,10,46,16.70
2017,07,18,10,47,16.70
2017,07,18,10,48,16.80
2017,07,18,10,49,16.80
2017,07,18,10,50,16.80
2017,07,18,10,51,16.80
2017,07,18,10,52,16.90
2017,07,18,10,53,16.90
2017,07,18,10,54,16.90
2017,07,18,10,55,16.80
2017,07,18,10,56,16.80
2017,07,18,10,57,16.80
2017,07,18,10,58,16.80
2017,07,18,10,59,16.90
2017,07,18,11,00,16.90
2017,07,18,11,01,17.00
2017,07,18,11,02,17.00
2017,07,18,11,03,17.10
2017,07,18,11,04,17.10
2017,07,18,11,05,17.20
2017,07,18,11,06,17.20
2017,07,18,11,07,17.30
2017,07,18,11,08,17.30
2017,07,18,11,09,17.30
2017,07,18,11,10,17.40
2017,07,18,11,11,17.40
2017,07,18,11,12,17.40
2017,07,18,11,13,17.40
2017,07,18,11,14,17.50
2017,07,18,11,15,17.60
2017,07,18,11,16,17.60
2017,07,18,11,17,17.60
2017,07,18,11,18,17.60
2017,07,18,11,19,17.60
2017,07,18,11,20,17.60
2017,07,18,11,21,17.70
2017,07,18,11,22,17.70
2017,07,18,11,23,17.70
2017,07,18,11,24,17.70
2017,07,18,11,25,17.70
2017,07,18,11,26,17.70
2017,07,18,11,27,17.70
2017,07,18,11,28,17.60
2017,07,18,11,29,17.60
2017,07,18,11,30,17.50
2017,07,18,11,31,17.50
2017,07,18,11,32,17.40
2017,07,18,11,33,17.40
2017,07,18,11,34,17.50
2017,07,18,11,35,17.50
2017,07,18,11,36,17.60
2017,07,18,11,37,17.60
2017,07,18,11,38,17.70
2017,07,18,11,39,17.80
2017,07,18,11,40,17.70
2017,07,18,11,41,17.70
2017,07,18,11,42,17.70
2017,07,18,11,43,17.70
2017,07,18,11,44,17.70
2017,07,18,11,45,17.70
2017,07,18,11,46,17.70
2017,07,18,11,47,17.80
2017,07,18,11,48,17.80
2017,07,18,11,49,17.80
2017,07,18,11,50,17.90
2017,07,18,11,51,17.90
2017,07,18,11,52,18.00
2017,07,18,11,53,18.00
2017,07,18,11,54,18.10
2017,07,18,11,55,18.10
2017,07,18,11,56,18.10
2017,07,18,11,57,18.20
2017,07,18,11,58,18.30
2017,07,18,11,59,18.30
2017,07,18,12,00,18.40
2017,07,18,12,01,18.40
2017,07,18,12,02,18.50
2017,07,18,12,03,18.50
2017,07,18,12,04,18.60
2017,07,18,12,05,18.60
2017,07,18,12,06,18.60
2017,07,18,12,07,18.70
2017,07,18,12,08,18.70
2017,07,18,12,09,18.80
2017,07,18,12,10,18.80
2017,07,18,12,11,18.80
2017,07,18,12,12,18.80
2017,07,18,12,13,18.70
2017,07,18,12,14,18.70
2017,07,18,12,15,18.70
2017,07,18,12,16,18.70
2017,07,18,12,17,18.70
2017,07,18,12,18,18.70
2017,07,18,12,19,18.70
2017,07,18,12,20,18.70
2017,07,18,12,21,18.70
2017,07,18,12,22,18.80
2017,07,18,12,23,18.80
2017,07,18,12,24,18.80
2017,07,18,12,25,18.80
2017,07,18,12,26,18.80
2017,07,18,12,27,18.80
2017,07,18,12,28,18.80
2017,07,18,12,29,18.80
2017,07,18,12,30,18.80
2017,07,18,12,31,18.90
2017,07,18,12,32,18.90
2017,07,18,12,33,18.90
2017,07,18,12,34,19.00
2017,07,18,12,35,19.00
2017,07,18,12,36,19.10
2017,07,18,12,37,19.10
2017,07,18,12,38,19.10
2017,07,18,12,39,19.20
2017,07,18,12,40,19.20
2017,07,18,12,41,19.30
2017,07,18,12,42,19.30
2017,07,18,12,43,19.40
2017,07,18,12,44,19.40
2017,07,18,12,45,19.50
2017,07,18,12,46,19.50
2017,07,18,12,47,19.60
2017,07,18,12,48,19.70
2017,07,18,12,49,19.80
2017,07,18,12,50,19.90
2017,07,18,12,51,20.00
2017,07,18,12,52,20.10
2017,07,18,12,53,20.20
2017,07,18,12,54,20.30
2017,07,18,12,55,20.40
2017,07,18,12,56,20.40
2017,07,18,12,57,20.50
2017,07,18,12,58,20.50
2017,07,18,12,59,20.60
2017,07,18,13,00,20.60
2017,07,18,13,01,20.60
2017,07,18,13,02,20.70
2017,07,18,13,03,20.70
2017,07,18,13,04,20.80
2017,07,18,13,05,20.80
2017,07,18,13,06,20.90
2017,07,18,13,07,21.00
2017,07,18,13,08,21.10
2017,07,18,13,09,21.20
2017,07,18,13,10,21.30
2017,07,18,13,11,21.30
2017,07,18,13,12,21.30
2017,07,18,13,13,21.30
2017,07,18,13,14,21.30
2017,07,18,13,15,21.30
2017,07,18,13,16,21.30
2017,07,18,13,17,21.30
2017,07,18,13,18,21.30
2017,07,18,13,19,21.30
2017,07,18,13,20,21.30
2017,07,18,13,21,21.40
2017,07,18,13,22,21.50
2017,07,18,13,23,21.50
2017,07,18,13,24,21.60
2017,07,18,13,25,21.70
2017,07,18,13,26,21.80
2017,07,18,13,27,21.90
2017,07,18,13,28,22.00
2017,07,18,13,29,22.10
2017,07,18,13,30,22.30
2017,07,18,13,31,22.40
2017,07,18,13,32,22.50
2017,07,18,13,33,22.70
2017,07,18,13,34,22.80
2017,07,18,13,35,22.90
2017,07,18,13,36,22.90
2017,07,18,13,37,22.90
2017,07,18,13,38,22.90
2017,07,18,13,39,23.00
2017,07,18,13,40,23.10
2017,07,18,13,41,23.10
2017,07,18,13,42,23.10
2017,07,18,13,43,23.20
2017,07,18,13,44,23.20
2017,07,18,13,45,23.10
2017,07,18,13,46,23.10
2017,07,18,13,47,23.00
2017,07,18,13,48,22.90
2017,07,18,13,49,22.90
2017,07,18,13,50,22.80
2017,07,18,13,51,22.80
2017,07,18,13,52,22.80
2017,07,18,13,53,22.70
2017,07,18,13,54,22.60
2017,07,18,13,55,22.50
2017,07,18,13,56,22.40
2017,07,18,13,57,22.30
2017,07,18,13,58,22.20
2017,07,18,13,59,22.20
2017,07,18,14,00,22.10
2017,07,18,14,01,22.10
2017,07,18,14,02,22.10
2017,07,18,14,03,22.20
2017,07,18,14,04,22.20
2017,07,18,14,05,22.10
2017,07,18,14,06,22.00
2017,07,18,14,07,22.00
2017,07,18,14,08,21.90
2017,07,18,14,09,21.80
2017,07,18,14,10,21.80
2017,07,18,14,11,21.90
2017,07,18,14,12,22.00
2017,07,18,14,13,22.10
2017,07,18,14,14,22.10
2017,07,18,14,15,22.20
2017,07,18,14,16,22.20
2017,07,18,14,17,22.20
2017,07,18,14,18,22.20
2017,07,18,14,19,22.20
2017,07,18,14,20,22.30
2017,07,18,14,21,22.30
2017,07,18,14,22,22.50
2017,07,18,14,23,22.60
2017,07,18,14,24,22.70
2017,07,18,14,25,22.90
2017,07,18,14,26,23.00
2017,07,18,14,27,23.20
2017,07,18,14,28,23.30
2017,07,18,14,29,23.40
2017,07,18,14,30,23.50
2017,07,18,14,31,23.60
2017,07,18,14,32,23.70
2017,07,18,14,33,23.70
2017,07,18,14,34,23.70
2017,07,18,14,35,23.70
2017,07,18,14,36,23.80
2017,07,18,14,37,23.80
2017,07,18,14,38,23.80
2017,07,18,14,39,23.90
2017,07,18,14,40,23.90
2017,07,18,14,41,23.90
2017,07,18,14,42,23.90
2017,07,18,14,43,23.90
2017,07,18,14,44,23.80
2017,07,18,14,45,23.70
2017,07,18,14,46,23.70
2017,07,18,14,47,23.60
2017,07,18,14,48,23.50
2017,07,18,14,49,23.40
2017,07,18,14,50,23.40
2017,07,18,14,51,23.30
2017,07,18,14,52,23.20
2017,07,18,14,53,23.10
2017,07,18,14,54,23.00
2017,07,18,14,55,23.00
2017,07,18,14,56,22.90
2017,07,18,14,57,22.90
2017,07,18,14,58,22.90
2017,07,18,14,59,22.90
2017,07,18,15,00,22.90
2017,07,18,15,01,22.90
2017,07,18,15,02,22.80
2017,07,18,15,03,22.80
2017,07,18,15,04,22.70
2017,07,18,15,05,22.70
2017,07,18,15,06,22.70
2017,07,18,15,07,22.70
2017,07,18,15,08,22.70
2017,07,18,15,09,22.80
2017,07,18,15,10,22.80
2017,07,18,15,11,22.80
2017,07,18,15,12,22.70
2017,07,18,15,13,22.50
2017,07,18,15,14,22.40
2017,07,18,15,15,22.30
2017,07,18,15,16,22.20
2017,07,18,15,17,22.20
2017,07,18,15,18,22.20
2017,07,18,15,19,22.20
2017,07,18,15,20,22.30
2017,07,18,15,21,22.40
2017,07,18,15,22,22.40
2017,07,18,15,23,22.40
2017,07,18,15,24,22.30
2017,07,18,15,25,22.20
2017,07,18,15,26,22.10
2017,07,18,15,27,22.10
2017,07,18,15,28,22.10
2017,07,18,15,29,22.10
2017,07,18,15,30,22.10
2017,07,18,15,31,22.10
2017,07,18,15,32,22.10
2017,07,18,15,33,22.20
2017,07,18,15,34,22.10
2017,07,18,15,35,22.10
2017,07,18,15,36,22.00
2017,07,18,15,37,22.00
2017,07,18,15,38,21.90
2017,07,18,15,39,21.90
2017,07,18,15,40,21.80
2017,07,18,15,41,21.70
2017,07,18,15,42,21.60
2017,07,18,15,43,21.50
2017,07,18,15,44,21.40
2017,07,18,15,45,21.30
2017,07,18,15,46,21.30
2017,07,18,15,47,21.30
2017,07,18,15,48,21.30
2017,07,18,15,49,21.20
2017,07,18,15,50,21.20
2017,07,18,15,51,21.20
2017,07,18,15,52,21.30
2017,07,18,15,53,21.30
2017,07,18,15,54,21.30
2017,07,18,15,55,21.40
2017,07,18,15,56,21.40
2017,07,18,15,57,21.40
2017,07,18,15,58,21.50
2017,07,18,15,59,21.50
2017,07,18,16,00,21.60
2017,07,18,16,01,21.60
2017,07,18,16,02,21.50
2017,07,18,16,03,21.40
2017,07,18,16,04,21.40
2017,07,18,16,05,21.40
2017,07,18,16,06,21.40
2017,07,18,16,07,21.40
2017,07,18,16,08,21.40
2017,07,18,16,09,21.40
2017,07,18,16,10,21.30
2017,07,18,16,11,21.30
2017,07,18,16,12,21.20
2017,07,18,16,13,21.20
2017,07,18,16,14,21.20
2017,07,18,16,15,21.20
2017,07,18,16,16,21.20
2017,07,18,16,17,21.20
2017,07,18,16,18,21.20
2017,07,18,16,19,21.20
2017,07,18,16,20,21.10
2017,07,18,16,21,21.00
2017,07,18,16,22,20.90
2017,07,18,16,23,20.80
2017,07,18,16,24,20.80
2017,07,18,16,25,20.70
2017,07,18,16,26,20.70
2017,07,18,16,27,20.70
2017,07,18,16,28,20.70
2017,07,18,16,29,20.70
2017,07,18,16,30,20.60
2017,07,18,16,31,20.60
2017,07,18,16,32,20.70
2017,07,18,16,33,20.70
2017,07,18,16,34,20.80
2017,07,18,16,35,20.80
2017,07,18,16,36,20.90
2017,07,18,16,37,20.90
2017,07,18,16,38,20.90
2017,07,18,16,39,20.90
2017,07,18,16,40,20.80
2017,07,18,16,41,20.80
2017,07,18,16,42,20.80
2017,07,18,16,43,20.80
2017,07,18,16,44,20.90
2017,07,18,16,45,20.90
2017,07,18,16,46,20.90
2017,07,18,16,47,20.90
2017,07,18,16,48,20.90
2017,07,18,16,49,20.90
2017,07,18,16,50,20.90
2017,07,18,16,51,20.90
2017,07,18,16,52,20.90
2017,07,18,16,53,20.80
2017,07,18,16,54,20.70
2017,07,18,16,55,20.60
2017,07,18,16,56,20.50
2017,07,18,16,57,20.40
2017,07,18,16,58,20.40
2017,07,18,16,59,20.30
2017,07,18,17,00,20.30
2017,07,18,17,01,20.30
2017,07,18,17,02,20.20
2017,07,18,17,03,20.20
2017,07,18,17,04,20.20
2017,07,18,17,05,20.30
2017,07,18,17,06,20.30
2017,07,18,17,07,20.40
2017,07,18,17,08,20.40
2017,07,18,17,09,20.40
2017,07,18,17,10,20.40
2017,07,18,17,11,20.50
2017,07,18,17,12,20.50
2017,07,18,17,13,20.60
2017,07,18,17,14,20.60
2017,07,18,17,15,20.60
2017,07,18,17,16,20.70
2017,07,18,17,17,20.70
2017,07,18,17,18,20.80
2017,07,18,17,19,20.80
2017,07,18,17,20,20.80
2017,07,18,17,21,20.90
2017,07,18,17,22,20.90
2017,07,18,17,23,21.00
2017,07,18,17,24,21.10
2017,07,18,17,25,21.20
2017,07,18,17,26,21.20
2017,07,18,17,27,21.30
2017,07,18,17,28,21.50
2017,07,18,17,29,21.60